sat.trackr.live / text

‹ back to catalog

YAOGAN-31 02A

NORAD 47532 · 2021-007A

PAYLOAD ACTIVE UNKNOWN

§ Identity

Operator
Country
PRC
Launch date
2021-01-29
Launch site
JSC
Launch vehicle
Mass (kg)
RCS (m²)

External: N2YO · Heavens-Above · Gunter

§ Orbital elements

Epoch: 2026-09-20T23:56:23.288928Z

Period
107.03 min
Inclination
63.4019°
Eccentricity
0.0184348
Mean motion
13.45453659 rev/d
Perigee alt
951.4 km
Apogee alt
1,226.7 km
Semi-major
7,467.2 km
B*
1.2863e-4
RAAN
256.8799°
Arg perigee
0.8260°
Mean anomaly
359.3036°
Rev number
27,712

§ Raw data

YAOGAN-31 02A1 47532U 21007A   26263.99749177 -.00000006  00000+0  12863-3 0  99922 47532  63.4019 256.8799 0184348   0.8260 359.3036 13.45453659277129

JSON: /api/v1/satellites/47532 · /tle

For live sub-satellite position, see the globe view (requires WebGL).

§ Visibility from observer

Set your observer location to see the next 7 days of passes ≥ 10°. The values pass through the URL so the page stays shareable.

No JS? Fill the form by hand. The geolocation button needs JavaScript.